When you browse on this site, cookies collect data to enhance your experience and personalize the content and advertising you see.
Visit our Privacy Policy to learn more. By continuing to use the site, you agree to this use of cookies and data.
  • In United Kingdom
  • List of Countries
  • For 7 days
  • Water Temperature
  • Satellite Maps
  • Weather Map
  • Weather Widgets
  • user-avatar
    Login

    Hourly Weather Lincoln

    Today, 23 January, Wednesday

    Time Temperature Precipitation Wind Pressure Humidity
    00:00 -2°C° 0 mm 2 mps 742 mmHg 92%
    01:00 -2°C° 0 mm 2 mps 743 mmHg 92%
    02:00 -2°C° 0 mm 2 mps 743 mmHg 93%
    03:00 -3°C° 0 mm 2 mps 743 mmHg 93%
    04:00 -3°C° 0 mm 2 mps 743 mmHg 92%
    05:00 -3°C° 0 mm 2 mps 744 mmHg 92%
    06:00 -4°C° 0 mm 3 mps 744 mmHg 92%
    07:00 -4°C° 0 mm 3 mps 745 mmHg 90%
    08:00 -4°C° 0 mm 3 mps 745 mmHg 88%
    09:00 -2°C° 0 mm 3 mps 746 mmHg 86%
    10:00 -1°C° 0 mm 3 mps 746 mmHg 81%
    11:00 0°C° 0 mm 3 mps 747 mmHg 77%
    12:00 +1°C° 0 mm 3 mps 747 mmHg 73%
    13:00 +2°C° 0 mm 2 mps 747 mmHg 73%
    14:00 +2°C° 0 mm 2 mps 747 mmHg 73%
    15:00 +2°C° 0 mm 2 mps 748 mmHg 73%
    16:00 +1°C° 0 mm 2 mps 748 mmHg 75%
    17:00 +1°C° 0 mm 1 mps 748 mmHg 77%
    18:00 0°C° 0 mm 1 mps 749 mmHg 79%
    19:00 0°C° 0 mm 1 mps 749 mmHg 78%
    20:00 0°C° 0 mm 1 mps 749 mmHg 77%
    21:00 0°C° 0 mm 1 mps 750 mmHg 76%
    22:00 0°C° 0 mm 1 mps 750 mmHg 77%
    23:00 -2°C° 0 mm 2 mps 750 mmHg 77%

    Tomorrow, 24 January, Thursday

    Time Temperature Precipitation Wind Pressure Humidity
    00:00 -2°C° 0 mm 2 mps 750 mmHg 78%
    01:00 -1°C° 0.1 mm 2 mps 750 mmHg 80%
    02:00 -1°C° 0.1 mm 3 mps 750 mmHg 82%
    03:00 0°C° 0.1 mm 3 mps 750 mmHg 84%
    04:00 0°C° 0.3 mm 3 mps 750 mmHg 86%
    05:00 +1°C° 0.3 mm 3 mps 750 mmHg 89%
    06:00 0°C° 0.3 mm 4 mps 750 mmHg 91%
    07:00 0°C° 0 mm 4 mps 750 mmHg 92%
    08:00 0°C° 0 mm 4 mps 750 mmHg 93%
    09:00 +1°C° 0 mm 3 mps 751 mmHg 94%
    10:00 0°C° 0 mm 4 mps 751 mmHg 90%
    11:00 +1°C° 0 mm 4 mps 751 mmHg 86%
    12:00 +3°C° 0 mm 4 mps 751 mmHg 81%
    13:00 +3°C° 0 mm 4 mps 752 mmHg 82%
    14:00 +1°C° 0 mm 4 mps 752 mmHg 82%
    15:00 +2°C° 0 mm 3 mps 753 mmHg 83%
    16:00 +1°C° 0 mm 3 mps 753 mmHg 85%
    17:00 0°C° 0 mm 3 mps 754 mmHg 88%
    18:00 -1°C° 0 mm 2 mps 754 mmHg 91%
    19:00 -1°C° 0 mm 2 mps 754 mmHg 91%
    20:00 -1°C° 0 mm 2 mps 755 mmHg 91%
    21:00 -2°C° 0 mm 2 mps 755 mmHg 91%
    22:00 -2°C° 0 mm 2 mps 756 mmHg 90%
    23:00 -2°C° 0 mm 2 mps 756 mmHg 90%

    Day after tomorrow, 25 January, Friday

    Time Temperature Precipitation Wind Pressure Humidity
    00:00 0°C° 0 mm 1 mps 756 mmHg 90%
    01:00 0°C° 0 mm 1 mps 756 mmHg 89%
    02:00 0°C° 0 mm 1 mps 756 mmHg 89%
    03:00 -1°C° 0 mm 0 mps 756 mmHg 88%
    04:00 +1°C° 0 mm 1 mps 756 mmHg 86%
    05:00 +1°C° 0 mm 1 mps 756 mmHg 84%
    06:00 +2°C° 0 mm 1 mps 757 mmHg 82%
    07:00 +1°C° 0 mm 2 mps 757 mmHg 81%
    08:00 +1°C° 0 mm 2 mps 757 mmHg 80%
    09:00 +1°C° 0 mm 3 mps 757 mmHg 79%
    10:00 +1°C° 0.1 mm 3 mps 757 mmHg 81%
    11:00 0°C° 0.1 mm 4 mps 757 mmHg 82%
    12:00 +1°C° 0.1 mm 4 mps 757 mmHg 84%
    13:00 +1°C° 0 mm 4 mps 756 mmHg 86%
    14:00 +3°C° 0 mm 4 mps 756 mmHg 88%
    15:00 +3°C° 0 mm 4 mps 755 mmHg 90%
    16:00 +3°C° 0 mm 4 mps 755 mmHg 92%
    17:00 +4°C° 0 mm 4 mps 755 mmHg 94%
    18:00 +4°C° 0 mm 4 mps 755 mmHg 96%
    19:00 +4°C° 0 mm 4 mps 754 mmHg 96%
    20:00 +4°C° 0 mm 4 mps 754 mmHg 95%
    21:00 +4°C° 0 mm 4 mps 753 mmHg 95%
    22:00 +5°C° 0 mm 5 mps 752 mmHg 94%
    23:00 +4°C° 0 mm 6 mps 751 mmHg 93%

    26 January, Saturday

    Time Temperature Precipitation Wind Pressure Humidity
    00:00 +4°C° 0 mm 6 mps 750 mmHg 92%
    01:00 +5°C° 0.6 mm 7 mps 749 mmHg 92%
    02:00 +5°C° 0.6 mm 7 mps 748 mmHg 92%
    03:00 +5°C° 0.6 mm 8 mps 746 mmHg 92%
    04:00 +6°C° 0.6 mm 7 mps 745 mmHg 92%
    05:00 +6°C° 0.6 mm 7 mps 744 mmHg 91%
    06:00 +6°C° 0.6 mm 7 mps 743 mmHg 91%
    07:00 +5°C° 1.4 mm 7 mps 743 mmHg 88%
    08:00 +3°C° 1.4 mm 7 mps 743 mmHg 85%
    09:00 +2°C° 1.4 mm 6 mps 744 mmHg 82%
    10:00 +2°C° 0 mm 7 mps 744 mmHg 78%
    11:00 +3°C° 0 mm 7 mps 744 mmHg 74%
    12:00 +3°C° 0 mm 7 mps 745 mmHg 69%
    13:00 +3°C° 0 mm 7 mps 745 mmHg 69%
    14:00 +3°C° 0 mm 6 mps 745 mmHg 69%
    15:00 +3°C° 0 mm 6 mps 745 mmHg 69%
    16:00 +2°C° 0 mm 6 mps 746 mmHg 70%
    17:00 +1°C° 0 mm 6 mps 746 mmHg 71%
    18:00 -1°C° 0 mm 6 mps 746 mmHg 71%
    19:00 0°C° 0 mm 5 mps 746 mmHg 71%
    20:00 -1°C° 0 mm 5 mps 746 mmHg 71%
    21:00 -1°C° 0 mm 5 mps 746 mmHg 71%
    22:00 -2°C° 0.1 mm 6 mps 746 mmHg 70%
    23:00 -1°C° 0.1 mm 7 mps 746 mmHg 70%

    27 January, Sunday

    Time Temperature Precipitation Wind Pressure Humidity
    00:00 -1°C° 0.1 mm 7 mps 746 mmHg 69%
    01:00 -1°C° 0 mm 7 mps 746 mmHg 71%
    02:00 -1°C° 0 mm 7 mps 746 mmHg 72%
    03:00 -1°C° 0 mm 7 mps 746 mmHg 74%
    04:00 -1°C° 0.1 mm 8 mps 746 mmHg 73%
    05:00 -1°C° 0.1 mm 8 mps 746 mmHg 72%
    06:00 -1°C° 0.1 mm 8 mps 746 mmHg 72%
    07:00 -1°C° 0 mm 9 mps 746 mmHg 71%
    08:00 -1°C° 0 mm 9 mps 746 mmHg 71%
    09:00 -1°C° 0 mm 9 mps 746 mmHg 70%
    10:00 0°C° 0.1 mm 10 mps 746 mmHg 70%
    11:00 +1°C° 0.1 mm 10 mps 747 mmHg 71%
    12:00 +2°C° 0.1 mm 10 mps 747 mmHg 71%
    13:00 +2°C° 0.3 mm 10 mps 748 mmHg 72%
    14:00 +2°C° 0.3 mm 9 mps 748 mmHg 73%
    15:00 +2°C° 0.3 mm 8 mps 749 mmHg 74%
    16:00 +2°C° 0.1 mm 8 mps 750 mmHg 76%
    17:00 +1°C° 0.1 mm 8 mps 750 mmHg 78%
    18:00 0°C° 0.1 mm 8 mps 751 mmHg 80%
    19:00 0°C° 0.6 mm 8 mps 752 mmHg 79%
    20:00 0°C° 0.6 mm 8 mps 752 mmHg 79%
    21:00 0°C° 0.6 mm 8 mps 753 mmHg 78%
    22:00 -1°C° 0 mm 8 mps 753 mmHg 78%
    23:00 -1°C° 0 mm 7 mps 753 mmHg 79%

    28 January, Monday

    Time Temperature Precipitation Wind Pressure Humidity
    00:00 -2°C° 0 mm 7 mps 754 mmHg 80%
    01:00 -2°C° 0 mm 7 mps 754 mmHg 81%
    02:00 -2°C° 0 mm 7 mps 754 mmHg 83%
    03:00 -1°C° 0 mm 6 mps 754 mmHg 85%
    04:00 -1°C° 0.1 mm 7 mps 755 mmHg 85%
    05:00 -1°C° 0.1 mm 7 mps 755 mmHg 84%
    06:00 -1°C° 0.1 mm 7 mps 755 mmHg 84%
    07:00 -1°C° 0 mm 7 mps 756 mmHg 84%
    08:00 -1°C° 0 mm 7 mps 757 mmHg 83%
    09:00 -1°C° 0 mm 7 mps 757 mmHg 83%
    10:00 0°C° 0 mm 7 mps 758 mmHg 81%
    11:00 +2°C° 0 mm 7 mps 758 mmHg 78%
    12:00 +3°C° 0 mm 7 mps 758 mmHg 75%
    13:00 +3°C° 0.1 mm 6 mps 759 mmHg 76%
    14:00 +3°C° 0.1 mm 6 mps 759 mmHg 76%
    15:00 +3°C° 0.1 mm 5 mps 759 mmHg 77%
    16:00 +2°C° 0 mm 5 mps 759 mmHg 81%
    17:00 +1°C° 0 mm 4 mps 760 mmHg 85%
    18:00 -1°C° 0 mm 4 mps 760 mmHg 90%
    19:00 0°C° 0 mm 3 mps 761 mmHg 90%
    20:00 0°C° 0 mm 3 mps 761 mmHg 91%
    21:00 -1°C° 0 mm 3 mps 761 mmHg 92%
    22:00 -1°C° 0 mm 3 mps 762 mmHg 92%
    23:00 -1°C° 0 mm 2 mps 762 mmHg 92%
    Show more